When you browse on this site, cookies collect data to enhance your experience and personalize the content and advertising you see.
Visit our Privacy Policy to learn more. By continuing to use the site, you agree to this use of cookies and data.
  • In Switzerland
  • List of Countries
  • For 7 days
  • Water Temperature
  • Weather Map
  • Weather Widgets
  • user-avatar
    Login

    Hourly Weather San Luis

    Today, 29 May, Friday

    Time Temperature Precipitation Wind Pressure Humidity
    00:00 +10°C° 0 mm 2 mps 697 mmHg 62%
    01:00 +10°C° 0 mm 2 mps 697 mmHg 63%
    02:00 +10°C° 0 mm 1 mps 697 mmHg 64%
    03:00 +10°C° 0 mm 1 mps 696 mmHg 67%
    04:00 +10°C° 0 mm 1 mps 696 mmHg 69%
    05:00 +9°C° 0 mm 1 mps 696 mmHg 71%
    06:00 +10°C° 0 mm 1 mps 696 mmHg 71%
    07:00 +10°C° 0 mm 1 mps 697 mmHg 71%
    08:00 +10°C° 0 mm 1 mps 697 mmHg 70%
    09:00 +12°C° 0 mm 1 mps 698 mmHg 63%
    10:00 +14°C° 0 mm 1 mps 698 mmHg 55%
    11:00 +16°C° 0 mm 2 mps 699 mmHg 47%
    12:00 +17°C° 0 mm 2 mps 698 mmHg 45%
    13:00 +18°C° 0 mm 2 mps 698 mmHg 42%
    14:00 +20°C° 0 mm 1 mps 697 mmHg 39%
    15:00 +18°C° 0 mm 3 mps 697 mmHg 43%
    16:00 +17°C° 0 mm 4 mps 698 mmHg 47%
    17:00 +15°C° 0 mm 5 mps 698 mmHg 52%
    18:00 +14°C° 0 mm 5 mps 698 mmHg 60%
    19:00 +11°C° 0 mm 6 mps 699 mmHg 68%
    20:00 +9°C° 0 mm 6 mps 699 mmHg 76%
    21:00 +9°C° 0 mm 6 mps 700 mmHg 77%
    22:00 +9°C° 0 mm 7 mps 700 mmHg 77%
    23:00 +8°C° 0 mm 7 mps 700 mmHg 78%

    Tomorrow, 30 May, Saturday

    Time Temperature Precipitation Wind Pressure Humidity
    00:00 +8°C° 0 mm 7 mps 701 mmHg 78%
    01:00 +8°C° 0 mm 7 mps 701 mmHg 79%
    02:00 +6°C° 0 mm 7 mps 701 mmHg 79%
    03:00 +6°C° 0 mm 7 mps 701 mmHg 80%
    04:00 +5°C° 0 mm 7 mps 701 mmHg 81%
    05:00 +5°C° 0 mm 7 mps 702 mmHg 82%
    06:00 +5°C° 0 mm 6 mps 702 mmHg 79%
    07:00 +5°C° 0 mm 6 mps 703 mmHg 77%
    08:00 +4°C° 0 mm 6 mps 703 mmHg 74%
    09:00 +5°C° 0 mm 6 mps 704 mmHg 69%
    10:00 +5°C° 0 mm 6 mps 704 mmHg 65%
    11:00 +7°C° 0 mm 5 mps 705 mmHg 60%
    12:00 +8°C° 0 mm 6 mps 704 mmHg 52%
    13:00 +9°C° 0 mm 6 mps 704 mmHg 44%
    14:00 +10°C° 0 mm 7 mps 704 mmHg 36%
    15:00 +9°C° 0 mm 6 mps 703 mmHg 38%
    16:00 +8°C° 0 mm 6 mps 703 mmHg 41%
    17:00 +8°C° 0 mm 6 mps 703 mmHg 43%
    18:00 +7°C° 0 mm 6 mps 703 mmHg 50%
    19:00 +6°C° 0 mm 5 mps 704 mmHg 57%
    20:00 +6°C° 0 mm 5 mps 704 mmHg 64%
    21:00 +5°C° 0 mm 4 mps 704 mmHg 66%
    22:00 +5°C° 0 mm 3 mps 705 mmHg 67%
    23:00 +6°C° 0 mm 2 mps 705 mmHg 68%

    Day after tomorrow, 31 May, Sunday

    Time Temperature Precipitation Wind Pressure Humidity
    00:00 +5°C° 0 mm 2 mps 704 mmHg 69%
    01:00 +5°C° 0 mm 2 mps 704 mmHg 70%
    02:00 +5°C° 0 mm 2 mps 704 mmHg 70%
    03:00 +5°C° 0 mm 2 mps 704 mmHg 73%
    04:00 +4°C° 0 mm 2 mps 703 mmHg 75%
    05:00 +3°C° 0 mm 2 mps 703 mmHg 78%
    06:00 +4°C° 0 mm 2 mps 703 mmHg 75%
    07:00 +4°C° 0 mm 2 mps 703 mmHg 73%
    08:00 +4°C° 0 mm 2 mps 704 mmHg 70%
    09:00 +6°C° 0 mm 2 mps 704 mmHg 59%
    10:00 +9°C° 0 mm 1 mps 704 mmHg 49%
    11:00 +11°C° 0 mm 1 mps 704 mmHg 39%
    12:00 +12°C° 0 mm 1 mps 704 mmHg 35%
    13:00 +13°C° 0 mm 1 mps 703 mmHg 32%
    14:00 +14°C° 0 mm 1 mps 703 mmHg 29%
    15:00 +13°C° 0 mm 1 mps 703 mmHg 32%
    16:00 +12°C° 0 mm 1 mps 702 mmHg 35%
    17:00 +11°C° 0 mm 1 mps 702 mmHg 38%
    18:00 +10°C° 0 mm 1 mps 702 mmHg 42%
    19:00 +7°C° 0 mm 2 mps 702 mmHg 46%
    20:00 +6°C° 0 mm 2 mps 702 mmHg 50%
    21:00 +6°C° 0 mm 2 mps 702 mmHg 52%
    22:00 +5°C° 0 mm 2 mps 703 mmHg 53%
    23:00 +5°C° 0 mm 2 mps 703 mmHg 54%

    1 June, Monday

    Time Temperature Precipitation Wind Pressure Humidity
    00:00 +5°C° 0 mm 2 mps 703 mmHg 55%
    01:00 +5°C° 0 mm 2 mps 703 mmHg 55%
    02:00 +5°C° 0 mm 2 mps 702 mmHg 55%
    03:00 +5°C° 0 mm 2 mps 702 mmHg 56%
    04:00 +5°C° 0 mm 2 mps 702 mmHg 56%
    05:00 +4°C° 0 mm 3 mps 702 mmHg 56%
    06:00 +4°C° 0 mm 3 mps 702 mmHg 55%
    07:00 +5°C° 0 mm 3 mps 703 mmHg 54%
    08:00 +5°C° 0 mm 3 mps 703 mmHg 53%
    09:00 +8°C° 0 mm 3 mps 703 mmHg 46%
    10:00 +11°C° 0 mm 4 mps 703 mmHg 39%
    11:00 +14°C° 0 mm 5 mps 704 mmHg 32%
    12:00 +15°C° 0 mm 5 mps 703 mmHg 30%
    13:00 +15°C° 0 mm 5 mps 702 mmHg 29%
    14:00 +16°C° 0 mm 5 mps 702 mmHg 27%
    15:00 +15°C° 0 mm 4 mps 701 mmHg 31%
    16:00 +14°C° 0 mm 3 mps 701 mmHg 34%
    17:00 +14°C° 0 mm 2 mps 700 mmHg 38%
    18:00 +13°C° 0 mm 2 mps 700 mmHg 42%
    19:00 +10°C° 0 mm 2 mps 700 mmHg 46%
    20:00 +8°C° 0 mm 2 mps 700 mmHg 51%
    21:00 +8°C° 0 mm 2 mps 700 mmHg 52%
    22:00 +8°C° 0 mm 3 mps 700 mmHg 53%
    23:00 +8°C° 0 mm 3 mps 700 mmHg 54%

    2 June, Tuesday

    Time Temperature Precipitation Wind Pressure Humidity
    00:00 +8°C° 0 mm 3 mps 700 mmHg 52%
    01:00 +7°C° 0 mm 4 mps 699 mmHg 51%
    02:00 +7°C° 0 mm 4 mps 699 mmHg 49%
    03:00 +7°C° 0 mm 4 mps 699 mmHg 50%
    04:00 +7°C° 0 mm 5 mps 698 mmHg 50%
    05:00 +7°C° 0 mm 5 mps 698 mmHg 50%
    06:00 +7°C° 0 mm 5 mps 698 mmHg 49%
    07:00 +7°C° 0 mm 5 mps 698 mmHg 49%
    08:00 +7°C° 0 mm 5 mps 698 mmHg 48%
    09:00 +10°C° 0 mm 5 mps 698 mmHg 41%
    10:00 +14°C° 0 mm 6 mps 698 mmHg 35%
    11:00 +17°C° 0 mm 7 mps 698 mmHg 28%
    12:00 +17°C° 0 mm 7 mps 697 mmHg 27%
    13:00 +18°C° 0 mm 7 mps 696 mmHg 26%
    14:00 +18°C° 0 mm 7 mps 695 mmHg 25%
    15:00 +17°C° 0 mm 6 mps 694 mmHg 28%
    16:00 +16°C° 0 mm 5 mps 694 mmHg 31%
    17:00 +15°C° 0 mm 4 mps 693 mmHg 34%
    18:00 +13°C° 0 mm 4 mps 693 mmHg 37%
    19:00 +12°C° 0 mm 4 mps 693 mmHg 41%
    20:00 +10°C° 0 mm 3 mps 693 mmHg 45%
    21:00 +9°C° 0 mm 3 mps 693 mmHg 48%
    22:00 +9°C° 0 mm 3 mps 693 mmHg 51%
    23:00 +8°C° 0 mm 2 mps 693 mmHg 54%

    3 June, Wednesday

    Time Temperature Precipitation Wind Pressure Humidity
    00:00 +8°C° 0 mm 2 mps 694 mmHg 55%
    01:00 +8°C° 0 mm 3 mps 694 mmHg 55%
    02:00 +8°C° 0 mm 3 mps 695 mmHg 56%
    03:00 +7°C° 0 mm 3 mps 695 mmHg 66%
    04:00 +5°C° 0 mm 4 mps 696 mmHg 75%
    05:00 +4°C° 0 mm 4 mps 696 mmHg 84%
    06:00 +4°C° 0 mm 4 mps 697 mmHg 84%
    07:00 +4°C° 0 mm 4 mps 698 mmHg 83%
    08:00 +4°C° 0 mm 3 mps 699 mmHg 83%
    09:00 +5°C° 0.1 mm 3 mps 699 mmHg 79%
    10:00 +6°C° 0.1 mm 4 mps 700 mmHg 75%
    11:00 +6°C° 0.1 mm 4 mps 700 mmHg 71%
    12:00 +7°C° 0.2 mm 3 mps 700 mmHg 70%
    13:00 +8°C° 0.2 mm 3 mps 700 mmHg 70%
    14:00 +8°C° 0.2 mm 3 mps 700 mmHg 69%
    15:00 +8°C° 0.1 mm 3 mps 700 mmHg 70%
    16:00 +8°C° 0.1 mm 3 mps 700 mmHg 72%
    17:00 +7°C° 0.1 mm 4 mps 700 mmHg 73%
    18:00 +7°C° 0.2 mm 4 mps 701 mmHg 74%
    19:00 +7°C° 0.2 mm 4 mps 701 mmHg 76%
    20:00 +7°C° 0.2 mm 4 mps 701 mmHg 78%
    21:00 +7°C° 0.5 mm 4 mps 702 mmHg 79%
    22:00 +7°C° 0.5 mm 4 mps 702 mmHg 80%
    23:00 +7°C° 0.5 mm 4 mps 702 mmHg 82%
    Show more